Zurück zum Katalog

HAWK-9B

AktivWissenschaftVLEO
NORAD 59450·PAYLOAD·🇺🇸 United States

Gestartet Apr 7, 2024 von Cape Canaveral Space Force Station

Loading…

Nächste Überflüge (nächste 24 Stunden)

TLE

AktuellSource: Space-Track

Epoche: Sep 14, 2026, 05:22 UTC

1 59450U 24066J   26257.22362689  .00001161  00000-0  11219-3 0  9997
2 59450  45.6093 177.8854 0002492 144.8976 215.2070 14.99367766133190

Verfolge HAWK-9B in Echtzeit mit AllMySat

Download on the App Store